CW3833 Weather Reports


Display with metric or nautical units.
time (UTC)temp
F
wind
direction
speed
MPH
gust
MPH
rain 1hr
in
rain 24hr
in
rain mn
in
humidity
%
barometer
mb
20260906211608 67 321 1.0 5.0 0.00 0.00 0.00 71 1019.3
20260906210136 69 69 1.0 7.0 0.00 0.00 0.00 67 1019.3
20260906204603 69 294 1.0 8.0 0.00 0.00 0.00 66 1019.1
20260906203107 70 296 1.0 8.0 0.00 0.00 0.00 66 1019.1
20260906201607 70 65 2.0 6.0 0.00 0.00 0.00 68 1019.0
20260906200111 69 226 2.0 7.0 0.00 0.00 0.00 66 1019.1
20260906194604 69 319 2.0 6.0 0.00 0.00 0.00 67 1019.1
20260906193103 69 67 2.0 8.0 0.00 0.00 0.00 68 1019.1
20260906191607 70 54 2.0 8.0 0.00 0.00 0.00 67 1018.8
20260906190110 70 0 3.0 9.0 0.00 0.00 0.00 71 1018.8
20260906184628 69 345 2.0 6.0 0.00 0.00 0.00 71 1018.8
20260906183107 69 5 1.0 7.0 0.00 0.00 0.00 70 1018.9
20260906181607 69 315 2.0 6.0 0.00 0.00 0.00 69 1018.9
20260906180107 69 43 2.0 11.0 0.00 0.00 0.00 69 1018.9
20260906174603 68 55 1.0 8.0 0.00 0.00 0.00 71 1019.0
20260906173123 68 20 2.0 6.0 0.00 0.00 0.00 70 1018.9
20260906171608 69 123 1.0 6.0 0.00 0.00 0.00 70 1019.1
20260906170112 69 36 3.0 8.0 0.00 0.00 0.00 72 1019.1
20260906164604 68 319 2.0 8.0 0.00 0.00 0.00 71 1018.9
20260906163105 69 0 2.0 10.0 0.00 0.00 0.00 71 1018.9
20260906161610 69 328 2.0 10.0 0.00 0.00 0.00 70 1018.8
20260906160123 68 77 3.0 9.0 0.00 0.00 0.00 73 1018.8
20260906154606 67 55 2.0 9.0 0.00 0.00 0.00 74 1018.7
20260906153105 67 58 2.0 8.0 0.00 0.00 0.00 75 1018.7
20260906151607 66 0 1.0 8.0 0.00 0.00 0.00 75 1018.7
20260906150118 65 20 2.0 6.0 0.00 0.00 0.00 75 1018.7
20260906144611 64 34 2.0 6.0 0.00 0.00 0.00 76 1018.6
20260906143106 63 346 0.0 6.0 0.00 0.00 0.00 77 1018.7
20260906141630 63 26 1.0 10.0 0.00 0.00 0.00 78 1018.6
20260906140116 63 0 2.0 6.0 0.00 0.00 0.00 80 1018.4
20260906134630 62 47 1.0 4.0 0.00 0.00 0.00 80 1018.2
20260906133116 62 0 0.0 5.0 0.00 0.00 0.00 80 1018.2
20260906131607 62 67 2.0 5.0 0.00 0.00 0.00 80 1018.2
20260906130148 62 36 0.0 8.0 0.00 0.00 0.00 80 1018.1
20260906124610 62 0 2.0 9.0 0.00 0.00 0.00 80 1017.9
20260906123105 62 311 1.0 4.0 0.00 0.00 0.00 80 1018.0
20260906121610 62 0 0.0 4.0 0.00 0.00 0.00 80 1017.8
20260906120112 62 46 1.0 4.0 0.00 0.00 0.00 80 1017.8
20260906114612 62 0 0.0 3.0 0.00 0.00 0.00 81 1017.5
20260906113109 60 0 0.0 0.0 0.00 0.00 0.00 81 1017.3
20260906111607 59 0 0.0 0.0 0.00 0.00 0.00 80 1017.2
20260906110106 58 0 0.0 0.0 0.00 0.00 0.00 80 1017.2
20260906104605 58 0 0.0 0.0 0.00 0.00 0.00 80 1017.1
20260906103112 58 0 0.0 0.0 0.00 0.00 0.00 80 1017.0
20260906101605 58 0 0.0 0.0 0.00 0.00 0.00 80 1016.7
20260906100107 58 0 0.0 0.0 0.00 0.00 0.00 80 1016.5
20260906094604 58 0 0.0 0.0 0.00 0.00 0.00 80 1016.5
20260906093111 58 0 0.0 0.0 0.00 0.00 0.00 80 1016.5
20260906091606 59 0 0.0 0.0 0.00 0.00 0.00 79 1016.4
20260906090107 59 0 0.0 0.0 0.00 0.00 0.00 79 1016.1
20260906084609 59 0 0.0 0.0 0.00 0.00 0.00 79 1015.9
20260906083105 60 0 0.0 0.0 0.00 0.00 0.00 79 1015.7
20260906081604 60 0 0.0 0.0 0.00 0.00 0.00 79 1015.8
20260906080106 60 0 0.0 0.0 0.00 0.00 0.00 79 1015.8
20260906074605 60 0 0.0 0.0 0.00 0.00 0.00 79 1015.8
20260906073105 60 0 0.0 0.0 0.00 0.00 0.00 79 1015.8
20260906071606 61 0 0.0 0.0 0.00 0.00 0.00 79 1015.8
20260906070105 61 0 0.0 0.0 0.00 0.00 0.00 79 1015.8
20260906064605 61 0 0.0 0.0 0.00 0.00 0.00 79 1015.9
20260906063104 61 0 0.0 1.0 0.00 0.00 0.00 79 1015.9
20260906061626 61 0 0.0 2.0 0.00 0.00 0.00 79 1016.0
20260906060123 61 0 0.0 0.0 0.00 0.00 0.00 79 1015.9
20260906054604 61 0 0.0 0.0 0.00 0.00 0.00 78 1015.9
20260906053104 61 0 0.0 0.0 0.00 0.00 0.00 79 1016.0
20260906051610 61 0 0.0 0.0 0.00 0.00 0.00 78 1015.9
20260906050106 62 0 0.0 0.0 0.00 0.00 0.00 78 1016.0
20260906044606 62 0 0.0 0.0 0.00 0.00 0.00 78 1015.9
20260906043107 62 0 0.0 0.0 0.00 0.00 0.00 78 1015.9
20260906041619 61 0 0.0 0.0 0.00 0.00 0.00 78 1015.8
20260906040114 61 0 0.0 0.0 0.00 0.00 0.00 78 1015.8
20260906034624 61 0 0.0 0.0 0.00 0.00 0.00 78 1015.7
20260906033107 61 0 0.0 0.0 0.00 0.00 0.00 78 1015.6
20260906031606 62 0 0.0 0.0 0.00 0.00 0.00 78 1015.7
20260906030116 62 0 0.0 0.0 0.00 0.00 0.00 78 1015.6
20260906024608 62 0 0.0 0.0 0.00 0.00 0.00 78 1015.6
20260906023110 62 0 0.0 0.0 0.00 0.00 0.00 78 1015.6
20260906021611 62 0 0.0 0.0 0.00 0.00 0.00 78 1015.5
20260906020107 62 0 0.0 1.0 0.00 0.00 0.00 78 1015.4
20260906014608 62 0 0.0 1.0 0.00 0.00 0.00 78 1015.3
20260906013103 63 0 0.0 1.0 0.00 0.00 0.00 78 1015.2
20260906011607 63 0 0.0 1.0 0.00 0.00 0.00 79 1015.3
20260906010108 63 0 0.0 0.0 0.00 0.00 0.00 79 1015.4
20260906004607 63 0 0.0 0.0 0.00 0.00 0.00 80 1015.2
20260906003104 63 0 0.0 0.0 0.00 0.00 0.00 80 1015.0
20260906001606 64 0 0.0 1.0 0.00 0.00 0.00 81 1015.2
20260906000111 64 0 0.0 0.0 0.00 0.00 0.00 81 1015.0
20260905234606 65 0 0.0 0.0 0.00 0.00 0.00 81 1015.0
20260905233120 66 0 0.0 0.0 0.00 0.00 0.00 80 1015.1
20260905231608 66 0 0.0 1.0 0.00 0.00 0.00 79 1014.9
20260905230109 68 0 0.0 4.0 0.00 0.00 0.00 77 1014.9
20260905224607 69 43 0.0 6.0 0.00 0.00 0.00 75 1015.1
20260905223107 70 53 1.0 3.0 0.00 0.00 0.00 72 1014.9
20260905221608 71 0 0.0 5.0 0.00 0.00 0.00 70 1014.8
20260905220109 72 61 1.0 7.0 0.00 0.00 0.00 70 1014.6
20260905214606 73 23 1.0 8.0 0.00 0.00 0.00 69 1014.3
20260905213113 73 57 1.0 5.0 0.00 0.00 0.00 68 1014.4